Theta_e
334 331 325 324 322 320 318 316 312 311 311 310 310 310 310 309 309 307 306 306 306 305 305 308 309 309 304 306 304 301 301 301 298 301 299 301 303 303 303 303 305 303 303
331 325 324 322 321 319 318 314 314 313 313 312 313 312 311 310 308 307 307 308 306 304 308 305 307 308 306 303 300 299 298 301 299 298 298 298 300 301 301 301 303 303 302
328 324 322 320 319 317 316 315 315 314 313 313 312 310 310 309 307 306 305 305 305 306 307 306 306 305 301 299 298 298 301 302 301 299 298 297 298 299 298 300 300 300 302
325 323 321 317 316 316 316 316 315 314 313 312 311 310 310 309 308 307 306 304 306 308 308 305 302 301 300 300 300 300 299 298 299 299 298 297 297 298 298 297 297 300 299
324 322 319 317 317 317 318 316 315 314 315 313 311 311 309 308 310 306 303 304 305 306 306 302 302 304 311 308 301 298 298 297 298 297 296 296 295 295 295 297 296 297 298
322 321 321 318 318 318 317 315 314 314 312 310 310 310 308 310 308 307 306 304 306 305 302 301 300 304 304 307 307 307 305 300 297 297 297 296 297 297 297 296 295 293 291
322 322 320 319 319 319 317 315 314 313 309 310 309 310 308 307 305 304 306 304 303 301 299 297 297 301 303 301 303 304 303 302 301 298 296 297 297 298 297 295 294 293 293
322 322 322 321 321 319 316 316 311 307 308 309 308 307 305 307 305 301 303 301 298 296 294 297 297 298 298 297 296 296 297 298 298 300 298 298 299 301 298 296 295 295 292
320 322 323 321 319 318 315 309 308 308 308 307 307 306 303 303 300 300 297 294 293 292 294 294 298 297 297 295 294 293 294 295 299 300 300 299 299 299 299 297 294 293 292
322 322 322 320 317 311 309 307 307 306 307 307 306 303 301 295 297 296 295 293 292 293 294 296 298 296 295 295 293 293 291 293 295 295 296 297 299 299 299 299 297 293 293
322 318 313 311 311 308 307 306 306 305 304 302 302 297 295 294 294 295 296 293 292 293 293 292 294 295 294 294 294 294 293 295 295 294 295 296 297 297 298 298 297 296 294
317 313 311 311 311 309 306 305 304 302 302 301 295 294 294 293 296 295 295 295 295 293 293 293 293 294 293 293 294 293 294 295 294 295 294 294 294 295 297 297 298 298 298
313 310 311 310 307 305 304 304 303 302 299 295 295 293 292 293 291 294 294 294 295 294 294 294 294 293 293 293 293 293 293 293 292 292 292 293 294 295 296 296 298 296 296
311 310 308 306 304 303 304 303 302 297 295 294 292 289 288 289 290 293 293 293 293 293 292 292 293 293 292 292 292 291 292 292 292 292 292 293 294 294 294 295 294 294 297
310 309 308 308 304 302 294 293 294 294 294 291 289 289 289 289 293 292 291 291 291 291 292 291 290 289 289 289 289 290 290 291 290 291 292 291 290 292 293 294 294 295 296
309 309 306 299 300 299 294 293 293 293 293 292 292 291 291 293 292 291 291 291 291 290 290 288 287 288 287 287 287 288 288 289 288 289 290 290 290 291 291 293 294 296 295
306 307 302 300 301 297 294 292 290 290 292 291 291 291 291 291 291 291 291 290 290 290 288 287 287 287 287 287 287 288 287 289 290 289 289 289 290 291 291 293 294 293 295
303 298 300 300 296 297 296 292 292 291 290 290 292 292 291 291 291 291 290 291 290 290 289 288 287 287 287 287 287 287 288 289 289 289 289 290 291 291 291 293 292 293 295
305 303 301 296 298 299 299 297 295 294 292 290 291 292 291 291 291 291 291 290 289 288 289 289 289 288 288 287 287 287 288 289 289 290 290 290 291 291 292 293 294 291 293
300 297 296 299 300 299 297 296 294 292 290 290 291 290 291 291 290 290 291 290 290 289 290 290 289 289 289 288 287 288 289 289 290 290 290 291 292 293 293 294 296 297 298
301 296 292 301 299 298 296 294 293 291 290 289 291 291 286 290 290 290 290 290 291 291 291 291 289 289 289 289 288 289 289 289 290 291 291 292 293 293 295 297 299 300 300
299 298 301 300 299 297 295 294 292 291 290 289 292 292 287 291 291 290 291 291 292 292 292 292 290 289 289 289 289 289 289 289 291 292 292 293 293 295 297 299 300 300 299
299 302 300 298 297 292 294 293 291 290 292 292 292 291 291 290 290 290 291 292 293 292 292 292 291 290 290 291 291 290 290 290 292 293 293 293 295 297 298 299 299 298 297
302 301 300 298 296 295 293 291 291 289 293 292 292 291 290 290 290 290 291 292 293 294 293 292 291 291 291 291 292 292 291 291 293 294 295 296 297 297 299 299 298 297 296
302 300 298 296 295 294 293 292 291 292 293 293 292 291 289 289 289 290 291 292 293 294 294 293 293 292 292 292 292 293 289 286 290 288 296 298 299 299 299 298 297 295 295
301 300 298 297 295 293 292 291 291 293 293 293 292 290 289 288 289 290 290 291 292 294 295 294 294 294 294 293 292 287 285 286 289 287 296 299 299 299 299 298 299 298 299
Wind_Speed
7 7 9 8 7 6 6 6 6 5 6 5 5 4 5 6 6 5 6 7 7 7 6 5 6 5 4 4 3 4 4 4 5 7 3 4 7 6 6 7 8 7 4
5 9 10 8 7 7 6 6 6 6 4 4 2 3 4 5 5 5 7 6 6 6 6 4 5 4 7 5 4 6 5 6 5 10 3 3 5 4 5 7 7 4 4
7 10 8 7 6 6 5 5 4 4 2 1 1 3 4 5 5 5 5 6 5 5 4 4 6 5 6 4 5 6 6 5 5 6 6 2 4 3 4 5 4 4 5
9 10 8 7 6 4 5 4 3 3 2 1 2 2 4 5 5 6 5 4 6 5 5 5 5 5 6 7 6 6 5 5 6 7 5 5 4 4 3 3 6 5 7
10 8 7 7 6 4 4 4 3 2 3 2 1 2 4 4 4 5 5 6 7 6 6 6 6 8 13 10 3 5 4 4 9 7 4 4 4 3 3 2 4 5 8
9 8 6 7 6 4 5 4 4 3 2 2 2 5 6 4 8 9 8 7 6 5 6 6 6 11 10 10 10 11 8 7 8 4 7 7 7 4 3 2 3 4 4
11 11 7 6 4 4 5 5 4 4 3 2 4 6 7 6 9 10 14 4 2 3 4 5 6 6 8 6 11 16 9 4 5 4 8 8 4 4 3 2 3 4 5
4 8 10 7 6 5 5 4 1 2 2 2 5 5 5 6 10 6 4 4 4 5 6 6 7 8 6 8 8 8 6 5 5 4 5 7 7 5 3 2 4 4 4
5 5 7 7 6 3 4 5 3 2 1 3 3 6 5 6 7 9 8 5 5 6 5 7 10 3 8 10 8 9 9 8 9 14 14 13 11 6 4 1 3 3 4
3 4 5 6 6 6 6 5 2 2 3 3 4 5 10 6 12 12 7 4 8 7 8 7 10 10 13 14 9 8 7 7 6 7 6 5 4 3 3 2 4 4 2
3 7 7 6 6 6 4 3 1 3 4 3 6 6 6 6 6 8 12 5 4 6 6 6 6 12 13 12 11 5 7 8 9 6 5 3 3 2 2 1 3 3 3
6 6 6 6 5 4 3 1 3 3 5 5 7 5 4 5 7 9 9 8 8 5 6 6 7 13 12 11 8 11 11 9 5 4 3 1 1 2 0 2 4 4 4
6 6 5 5 4 2 2 4 4 5 2 5 5 4 4 3 3 8 8 11 10 7 5 10 12 10 11 7 10 13 9 5 5 4 1 2 2 2 3 3 4 4 6
6 5 5 4 1 5 5 4 2 4 5 5 4 3 2 2 4 5 5 5 8 7 10 6 8 8 9 9 7 7 5 5 5 3 2 2 2 2 2 2 2 3 2
6 5 3 2 4 6 8 6 4 5 5 6 3 3 4 5 6 8 8 6 6 7 8 5 5 5 5 5 5 6 5 5 6 5 3 2 3 3 3 3 2 2 2
5 4 3 2 2 6 7 9 18 14 17 15 10 6 3 6 9 10 12 12 11 12 3 4 5 5 5 5 5 4 4 6 4 4 3 3 3 3 3 3 2 2 2
3 4 3 3 3 6 7 7 8 3 7 9 11 11 9 6 8 12 13 11 9 8 4 4 5 5 4 4 4 4 4 4 4 3 3 3 3 3 4 3 3 3 3
4 6 2 2 5 5 6 5 4 3 3 3 5 7 9 10 12 11 12 7 6 6 5 5 5 4 4 4 4 3 4 4 3 2 3 3 2 2 3 3 3 3 2
3 3 4 5 7 8 7 6 5 5 4 2 3 4 7 12 10 9 9 5 6 6 6 6 5 4 4 3 3 4 4 3 3 3 2 2 3 3 2 3 3 3 2
5 7 7 8 8 7 6 6 4 5 3 4 5 6 8 6 6 6 6 6 6 6 6 5 6 5 5 4 3 4 4 4 3 3 3 3 3 2 3 3 2 4 6
3 5 8 8 8 7 6 6 5 4 4 3 4 7 7 4 5 6 6 6 7 7 6 6 5 5 4 4 4 4 4 3 3 3 3 3 3 4 3 2 4 6 5
4 6 8 9 7 7 5 5 4 3 4 3 6 6 7 4 6 6 6 7 7 6 5 5 4 4 4 4 4 4 4 4 4 5 4 4 4 3 4 5 6 6 5
7 10 9 8 7 6 7 5 3 4 4 6 5 4 4 5 6 6 6 7 6 5 5 5 4 4 3 3 3 3 3 4 4 4 5 4 3 4 5 6 5 5 5
10 11 10 8 5 6 6 3 4 4 5 6 4 4 5 5 6 7 6 6 6 4 4 4 3 5 4 4 4 4 3 4 4 5 6 4 4 5 5 5 4 5 5
10 9 9 6 5 6 5 5 4 4 7 5 4 4 5 5 6 6 6 6 6 5 4 4 3 4 4 5 5 6 6 7 5 6 4 5 7 7 5 4 5 5 5
9 9 7 6 6 4 4 4 3 7 6 4 4 4 5 5 5 5 6 6 6 5 6 3 4 6 7 5 6 6 5 5 5 6 4 4 5 5 4 5 6 3 4
Wind_Direction
127 109 108 105 101 89 96 117 128 113 124 144 182 207 233 248 258 254 254 260 250 257 275 266 262 255 260 248 238 235 242 218 253 282 227 278 286 280 284 289 288 277 273
127 115 115 117 120 116 126 131 137 136 146 169 202 264 266 264 267 256 262 258 259 282 270 268 289 274 263 255 242 246 241 243 226 267 258 259 255 261 273 288 294 290 290
128 118 121 129 127 128 134 140 139 134 178 329 305 286 290 286 291 272 255 265 251 228 251 260 267 290 284 276 254 247 248 253 226 237 266 248 259 254 284 283 297 296 300
138 136 140 150 139 151 134 141 157 175 183 268 285 292 301 303 292 283 277 225 251 249 262 271 263 253 248 253 253 256 261 259 262 255 249 268 255 255 244 285 307 309 310
148 139 144 139 138 139 134 157 180 198 235 221 206 261 282 283 273 262 253 250 245 256 258 271 270 267 277 278 222 268 269 269 291 256 250 261 254 258 253 274 298 300 299
147 137 136 128 144 176 158 169 187 226 209 186 235 269 282 273 276 272 238 247 254 305 313 328 320 316 307 300 300 292 277 291 271 252 252 245 254 247 237 258 289 303 314
149 144 137 144 161 195 185 186 206 214 188 242 281 280 282 288 284 274 253 10 333 25 22 340 322 316 309 284 278 287 284 292 321 309 314 265 234 227 210 237 262 274 270
178 146 144 150 170 192 189 211 154 142 209 242 266 282 313 300 289 338 105 38 44 356 330 316 304 307 26 14 347 328 314 298 285 294 279 291 300 276 205 235 279 275 277
153 160 152 152 163 174 168 139 166 168 225 257 272 334 323 349 51 66 61 38 4 328 317 318 321 347 3 334 329 304 294 285 281 273 264 277 276 219 241 216 262 262 294
149 170 126 141 152 134 134 161 191 214 263 298 345 45 82 76 54 53 45 18 355 340 325 322 344 334 336 332 315 297 295 296 295 296 281 277 247 227 289 233 267 252 262
168 99 105 105 110 136 162 192 186 291 288 345 76 72 76 69 34 45 35 26 337 316 312 325 320 325 323 321 324 316 318 312 300 292 284 261 263 277 259 267 288 281 253
115 114 106 107 124 160 156 307 284 309 332 38 112 93 57 41 42 10 6 344 324 298 305 307 311 319 320 337 337 335 329 326 320 300 298 286 292 310 27 315 287 267 245
121 120 122 111 107 165 232 309 351 7 46 66 101 88 20 355 337 340 337 326 318 326 326 330 333 2 351 338 345 352 352 343 333 313 26 27 54 19 335 317 296 305 283
129 118 95 105 236 20 17 7 8 77 81 78 83 69 304 335 358 350 338 333 338 351 337 321 348 352 348 346 351 352 348 349 350 1 44 44 25 2 343 329 313 302 304
113 116 118 74 13 77 61 18 42 34 93 101 73 48 14 1 356 339 343 355 346 341 333 345 347 351 343 346 348 350 353 0 7 358 12 33 21 4 341 316 299 319 297
121 114 72 45 355 101 98 77 49 81 93 91 79 63 357 353 347 354 355 355 343 345 342 347 342 334 340 343 342 343 346 351 359 330 355 27 19 1 335 319 318 318 358
116 97 54 28 51 123 127 127 124 39 74 95 78 47 24 338 4 2 353 341 341 342 355 344 327 328 335 339 337 341 348 338 330 330 7 6 16 334 322 329 348 16 11
112 87 71 42 87 96 119 116 121 140 72 347 34 46 3 12 11 354 347 344 360 359 347 328 318 323 336 338 338 338 335 337 323 2 19 9 342 320 335 349 6 358 14
126 93 87 76 89 87 89 90 88 83 78 45 3 4 356 8 352 345 351 4 347 343 339 333 333 339 341 341 344 340 338 343 352 34 11 338 321 327 336 351 346 7 72
81 106 93 100 94 90 87 93 86 72 51 39 29 20 8 352 356 356 357 350 346 345 335 344 5 4 10 19 356 349 354 9 12 6 332 322 325 339 342 334 16 71 86
92 95 96 95 94 90 89 88 76 66 52 41 26 32 359 338 349 353 349 349 352 345 345 10 12 14 19 6 3 5 2 7 356 343 339 343 345 338 341 59 69 86 80
99 93 99 98 96 92 93 81 75 68 59 36 34 12 346 356 1 354 349 356 354 349 359 17 23 17 3 1 1 2 358 355 352 353 347 331 336 16 47 65 77 78 83
100 107 101 97 97 98 83 71 58 55 48 43 26 355 2 4 1 353 349 353 348 356 0 11 7 6 355 354 350 349 350 343 334 333 331 344 27 48 59 71 78 75 79
112 107 107 102 105 97 88 78 55 56 50 42 8 9 19 9 359 349 353 346 345 349 1 6 6 8 354 356 349 349 344 338 331 331 338 12 50 55 68 67 57 73 78
105 105 104 109 112 98 98 73 48 49 47 27 10 27 24 7 1 352 352 343 340 348 359 3 351 348 350 349 348 339 339 334 340 338 1 34 56 60 59 54 62 60 66
106 103 103 102 93 99 95 91 59 51 36 22 26 36 31 7 355 350 347 344 339 344 355 359 342 345 349 349 348 332 329 334 346 350 23 57 62 54 52 57 55 56 70